CES2178 ZBTJ-ZLXY

Flight info

Callsign CES2178
Flight time 1h 34m
Altitude 32100
Route PEGSO B215 GODON W43 SAVPA W696 MENED W276 LOVRA
Aircraft A20N/M-SDE2E3FGILRWXY/LB2

Departure

Time 2026-04-22 15:32
Airport Tianjin Binhai International Airport (ZBTJ)

Arrival

Time 2026-04-22 17:07
Airport Xi'an Xianyang International Airport (ZLXY)
Time Latitude Longitude Altitude Speed Heading
2026-04-22 14:56 39.12615 117.36117 18 ft 0 kts 267°
2026-04-22 15:18 39.12615 117.36121 18 ft 2 kts 269°
2026-04-22 15:18 39.12616 117.36141 18 ft 2 kts 266°
2026-04-22 15:18 39.12616 117.36160 18 ft 2 kts 268°
2026-04-22 15:19 39.12617 117.36179 18 ft 2 kts 267°
2026-04-22 15:19 39.12618 117.36198 18 ft 2 kts 268°
2026-04-22 15:19 39.12618 117.36211 18 ft 1 kts 268°
2026-04-22 15:19 39.12622 117.36229 18 ft 2 kts 237°
2026-04-22 15:20 39.12628 117.36239 18 ft 2 kts 221°
2026-04-22 15:20 39.12646 117.36250 19 ft 2 kts 187°
2026-04-22 15:20 39.12660 117.36249 18 ft 2 kts 161°
2026-04-22 15:20 39.12667 117.36246 18 ft 1 kts 149°
2026-04-22 15:21 39.12670 117.36243 18 ft 0 kts 153°
2026-04-22 15:22 39.12668 117.36244 18 ft 1 kts 153°
2026-04-22 15:22 39.12655 117.36253 18 ft 3 kts 153°
2026-04-22 15:23 39.12632 117.36268 18 ft 4 kts 153°
2026-04-22 15:23 39.12593 117.36293 18 ft 7 kts 153°
2026-04-22 15:23 39.12532 117.36329 18 ft 11 kts 155°
2026-04-22 15:23 39.12457 117.36375 18 ft 11 kts 153°
2026-04-22 15:24 39.12378 117.36416 18 ft 12 kts 179°
2026-04-22 15:24 39.12317 117.36341 18 ft 13 kts 245°
2026-04-22 15:24 39.12277 117.36231 18 ft 13 kts 245°
2026-04-22 15:24 39.12233 117.36115 17 ft 15 kts 243°
2026-04-22 15:25 39.12184 117.35983 15 ft 17 kts 244°
2026-04-22 15:25 39.12130 117.35841 15 ft 17 kts 243°
2026-04-22 15:25 39.12078 117.35698 15 ft 17 kts 244°
2026-04-22 15:25 39.12024 117.35555 15 ft 17 kts 244°
2026-04-22 15:26 39.11971 117.35414 15 ft 15 kts 245°
2026-04-22 15:26 39.11926 117.35289 16 ft 11 kts 244°
2026-04-22 15:26 39.11927 117.35195 18 ft 10 kts 307°
2026-04-22 15:26 39.11992 117.35145 18 ft 11 kts 336°
2026-04-22 15:27 39.12083 117.35090 18 ft 17 kts 333°
2026-04-22 15:27 39.12206 117.35014 18 ft 20 kts 334°
2026-04-22 15:27 39.12331 117.34937 20 ft 19 kts 333°
2026-04-22 15:27 39.12456 117.34860 19 ft 19 kts 334°
2026-04-22 15:28 39.12582 117.34783 18 ft 20 kts 335°
2026-04-22 15:28 39.12707 117.34707 18 ft 20 kts 335°
2026-04-22 15:28 39.12838 117.34624 15 ft 21 kts 334°
2026-04-22 15:28 39.12968 117.34548 15 ft 17 kts 334°
2026-04-22 15:29 39.13078 117.34482 17 ft 17 kts 335°
2026-04-22 15:29 39.13179 117.34414 18 ft 16 kts 338°
2026-04-22 15:29 39.13283 117.34354 18 ft 16 kts 334°
2026-04-22 15:30 39.13464 117.34242 18 ft 18 kts 335°
2026-04-22 15:30 39.13612 117.34151 20 ft 18 kts 334°
2026-04-22 15:30 39.13728 117.34081 21 ft 17 kts 332°
2026-04-22 15:30 39.13783 117.34015 22 ft 10 kts 277°
2026-04-22 15:31 39.13760 117.33918 22 ft 12 kts 244°
2026-04-22 15:31 39.13694 117.33855 22 ft 12 kts 178°
2026-04-22 15:31 39.13596 117.33904 22 ft 27 kts 154°
2026-04-22 15:31 39.13182 117.34159 19 ft 101 kts 154°
2026-04-22 15:32 39.12355 117.34668 60 ft 154 kts 154°
2026-04-22 15:32 39.11772 117.35029 354 ft 159 kts 154°
2026-04-22 15:32 39.10781 117.35641 1005 ft 159 kts 154°
2026-04-22 15:32 39.09794 117.36244 1708 ft 157 kts 155°
2026-04-22 15:33 39.08789 117.36858 2202 ft 169 kts 156°
2026-04-22 15:33 39.07681 117.37533 2619 ft 188 kts 156°
2026-04-22 15:33 39.06430 117.38294 3052 ft 209 kts 156°
2026-04-22 15:33 39.05060 117.39127 3577 ft 227 kts 156°
2026-04-22 15:34 39.04084 117.39722 3984 ft 237 kts 156°
2026-04-22 15:34 39.02004 117.40753 4907 ft 249 kts 176°
2026-04-22 15:34 39.00864 117.40627 5246 ft 258 kts 198°
2026-04-22 15:34 38.98679 117.39199 6263 ft 269 kts 211°
2026-04-22 15:35 38.97592 117.38399 6840 ft 273 kts 210°
2026-04-22 15:35 38.95356 117.36884 7959 ft 280 kts 207°
2026-04-22 15:35 38.93609 117.35756 8759 ft 286 kts 212°
2026-04-22 15:35 38.92109 117.34096 9521 ft 290 kts 233°
2026-04-22 15:36 38.91063 117.31885 10320 ft 293 kts 244°
2026-04-22 15:36 38.90131 117.29516 10876 ft 308 kts 245°
2026-04-22 15:36 38.89152 117.27006 11281 ft 326 kts 245°
2026-04-22 15:36 38.88090 117.24345 11655 ft 344 kts 245°
2026-04-22 15:37 38.86962 117.21561 12043 ft 360 kts 245°
2026-04-22 15:37 38.85778 117.18668 12709 ft 367 kts 245°
2026-04-22 15:37 38.84589 117.15775 13452 ft 370 kts 245°
2026-04-22 15:37 38.83386 117.12854 14185 ft 374 kts 246°
2026-04-22 15:38 38.82190 117.09939 14898 ft 377 kts 246°
2026-04-22 15:38 38.79738 117.03975 16367 ft 380 kts 246°
2026-04-22 15:38 38.78499 117.00968 17073 ft 382 kts 246°
2026-04-22 15:39 38.77269 116.97988 17736 ft 384 kts 246°
2026-04-22 15:39 38.76018 116.94958 18379 ft 387 kts 245°
2026-04-22 15:39 38.74751 116.91901 18993 ft 390 kts 245°
2026-04-22 15:39 38.73901 116.89886 19412 ft 391 kts 245°
2026-04-22 15:40 38.72160 116.85780 20247 ft 394 kts 245°
2026-04-22 15:40 38.70868 116.82738 20852 ft 395 kts 245°
2026-04-22 15:40 38.69558 116.79654 21441 ft 397 kts 245°
2026-04-22 15:40 38.68238 116.76548 22013 ft 399 kts 245°
2026-04-22 15:41 38.66910 116.73422 22585 ft 401 kts 245°
2026-04-22 15:41 38.65607 116.70306 23123 ft 401 kts 247°
2026-04-22 15:41 38.64649 116.66985 23639 ft 400 kts 257°
2026-04-22 15:41 38.64176 116.63465 24170 ft 399 kts 267°
2026-04-22 15:42 38.64155 116.59946 24695 ft 399 kts 272°
2026-04-22 15:42 38.64250 116.56411 25190 ft 400 kts 272°
2026-04-22 15:42 38.64356 116.52870 25642 ft 402 kts 272°
2026-04-22 15:42 38.64461 116.49326 26097 ft 403 kts 271°
2026-04-22 15:43 38.64565 116.45740 26672 ft 401 kts 271°
2026-04-22 15:43 38.64663 116.42219 27329 ft 397 kts 271°
2026-04-22 15:43 38.64759 116.38712 27949 ft 393 kts 270°
2026-04-22 15:43 38.64851 116.35285 28527 ft 390 kts 270°
2026-04-22 15:44 38.64941 116.31841 29135 ft 386 kts 269°
2026-04-22 15:44 38.65029 116.28432 29730 ft 383 kts 269°
2026-04-22 15:44 38.65086 116.26169 30091 ft 381 kts 269°
2026-04-22 15:44 38.65199 116.21688 30684 ft 380 kts 268°
2026-04-22 15:45 38.65351 116.18314 31026 ft 383 kts 272°
2026-04-22 15:45 38.65710 116.14959 31350 ft 386 kts 276°
2026-04-22 15:45 38.66280 116.11603 31716 ft 389 kts 280°
2026-04-22 15:45 38.67063 116.08269 32050 ft 392 kts 284°
2026-04-22 15:46 38.69255 116.01851 32109 ft 398 kts 292°
2026-04-22 15:46 38.71636 115.96797 32114 ft 401 kts 296°
2026-04-22 15:47 38.75135 115.89746 32113 ft 402 kts 296°
2026-04-22 15:47 38.78130 115.83714 32115 ft 402 kts 296°
2026-04-22 15:48 38.81113 115.77692 32111 ft 403 kts 296°
2026-04-22 15:48 38.84106 115.71635 32112 ft 403 kts 297°
2026-04-22 15:49 38.87100 115.65565 32108 ft 403 kts 297°
2026-04-22 15:49 38.89878 115.59395 32114 ft 397 kts 289°
2026-04-22 15:50 38.91396 115.52680 32118 ft 390 kts 276°
2026-04-22 15:50 38.91536 115.45789 32113 ft 387 kts 263°
2026-04-22 15:51 38.90335 115.39121 32112 ft 386 kts 250°
2026-04-22 15:51 38.88226 115.32825 32125 ft 386 kts 246°
2026-04-22 15:52 38.86031 115.26538 32125 ft 386 kts 246°
2026-04-22 15:52 38.83831 115.20271 32117 ft 386 kts 246°
2026-04-22 15:53 38.81637 115.14044 32111 ft 386 kts 246°
2026-04-22 15:53 38.79426 115.07785 32109 ft 387 kts 246°
2026-04-22 15:54 38.77202 115.01501 32107 ft 388 kts 246°
2026-04-22 15:54 38.74977 114.95229 32107 ft 388 kts 246°
2026-04-22 15:55 38.72733 114.88917 32110 ft 389 kts 246°
2026-04-22 15:55 38.70504 114.82658 32114 ft 389 kts 246°
2026-04-22 15:56 38.68260 114.76372 32114 ft 390 kts 246°
2026-04-22 15:56 38.66378 114.71112 32114 ft 390 kts 246°
2026-04-22 15:57 38.63756 114.63800 32105 ft 391 kts 246°
2026-04-22 15:57 38.61482 114.57485 32110 ft 391 kts 246°
2026-04-22 15:58 38.59570 114.52232 32110 ft 392 kts 246°
2026-04-22 15:58 38.57296 114.45953 32108 ft 392 kts 246°
2026-04-22 15:59 38.54627 114.38584 32106 ft 393 kts 246°
2026-04-22 15:59 38.52333 114.32267 32107 ft 393 kts 245°
2026-04-22 16:00 38.50028 114.25935 32110 ft 394 kts 245°
2026-04-22 16:00 38.47725 114.19619 32105 ft 395 kts 245°
2026-04-22 16:01 38.45412 114.13291 32105 ft 395 kts 245°
2026-04-22 16:01 38.43086 114.06941 32108 ft 396 kts 245°
2026-04-22 16:02 38.40752 114.00583 32109 ft 396 kts 245°
2026-04-22 16:02 38.38822 113.95325 32114 ft 397 kts 245°
2026-04-22 16:03 38.36091 113.87903 32118 ft 398 kts 246°
2026-04-22 16:03 38.33727 113.81499 32130 ft 399 kts 245°
2026-04-22 16:04 38.31340 113.75150 32131 ft 400 kts 245°
2026-04-22 16:04 38.28936 113.68784 32133 ft 399 kts 245°
2026-04-22 16:05 38.26545 113.62463 32140 ft 401 kts 245°
2026-04-22 16:05 38.24133 113.56094 32142 ft 401 kts 245°
2026-04-22 16:06 38.21710 113.49705 32154 ft 401 kts 245°
2026-04-22 16:06 38.19282 113.43322 32163 ft 401 kts 245°
2026-04-22 16:07 38.17271 113.38046 32169 ft 401 kts 245°
2026-04-22 16:07 38.14868 113.31664 32180 ft 402 kts 245°
2026-04-22 16:08 38.12482 113.25245 32190 ft 402 kts 246°
2026-04-22 16:08 38.09705 113.17799 32185 ft 402 kts 246°
2026-04-22 16:09 38.07309 113.11401 32187 ft 402 kts 245°
2026-04-22 16:09 38.04917 113.05022 32193 ft 401 kts 245°
2026-04-22 16:10 38.02510 112.98624 32175 ft 403 kts 246°
2026-04-22 16:10 38.00109 112.92254 32196 ft 402 kts 246°
2026-04-22 16:11 37.97704 112.85885 32175 ft 403 kts 246°
2026-04-22 16:11 37.95284 112.79494 32138 ft 404 kts 246°
2026-04-22 16:12 37.92850 112.73071 32136 ft 405 kts 246°
2026-04-22 16:12 37.90400 112.66628 32117 ft 406 kts 246°
2026-04-22 16:13 37.87962 112.60223 32137 ft 406 kts 246°
2026-04-22 16:13 37.85345 112.53902 32139 ft 408 kts 244°
2026-04-22 16:14 37.82672 112.47581 32118 ft 408 kts 245°
2026-04-22 16:14 37.80002 112.41277 32129 ft 408 kts 245°
2026-04-22 16:15 37.77340 112.34952 32142 ft 409 kts 246°
2026-04-22 16:15 37.75284 112.29594 32147 ft 409 kts 247°
2026-04-22 16:16 37.72405 112.22065 32175 ft 409 kts 247°
2026-04-22 16:16 37.69932 112.15615 32177 ft 410 kts 247°
2026-04-22 16:17 37.67458 112.09172 32182 ft 410 kts 247°
2026-04-22 16:17 37.64965 112.02695 32179 ft 411 kts 247°
2026-04-22 16:18 37.62467 111.96211 32185 ft 411 kts 247°
2026-04-22 16:18 37.59977 111.89773 32192 ft 411 kts 247°
2026-04-22 16:19 37.57481 111.83328 32189 ft 412 kts 248°
2026-04-22 16:19 37.54965 111.76842 32208 ft 413 kts 247°
2026-04-22 16:20 37.52194 111.70501 32199 ft 415 kts 241°
2026-04-22 16:20 37.48800 111.64601 32204 ft 418 kts 235°
2026-04-22 16:21 37.44920 111.59173 32193 ft 421 kts 230°
2026-04-22 16:21 37.40749 111.54006 32200 ft 421 kts 230°
2026-04-22 16:22 37.34539 111.46310 32202 ft 417 kts 229°
2026-04-22 16:23 37.28352 111.38664 32192 ft 416 kts 229°
2026-04-22 16:23 37.24248 111.33603 32191 ft 416 kts 229°
2026-04-22 16:24 37.18048 111.25971 32196 ft 416 kts 229°
2026-04-22 16:25 37.13934 111.20915 32199 ft 416 kts 229°
2026-04-22 16:25 37.07738 111.13315 32202 ft 417 kts 229°
2026-04-22 16:26 37.03593 111.08242 32200 ft 417 kts 229°
2026-04-22 16:26 36.99453 111.03185 32200 ft 416 kts 229°
2026-04-22 16:27 36.95337 110.98164 32200 ft 416 kts 229°
2026-04-22 16:27 36.91185 110.93108 32199 ft 415 kts 229°
2026-04-22 16:28 36.87792 110.88848 32189 ft 414 kts 232°
2026-04-22 16:28 36.83581 110.82421 32186 ft 410 kts 238°
2026-04-22 16:29 36.80424 110.76572 32184 ft 408 kts 240°
2026-04-22 16:29 36.77288 110.70680 32185 ft 409 kts 240°
2026-04-22 16:30 36.74142 110.64775 32178 ft 409 kts 241°
2026-04-22 16:30 36.71011 110.58904 32166 ft 409 kts 241°
2026-04-22 16:31 36.67868 110.53024 32165 ft 409 kts 241°
2026-04-22 16:31 36.64724 110.47151 32162 ft 409 kts 241°
2026-04-22 16:32 36.61570 110.41268 32160 ft 409 kts 241°
2026-04-22 16:32 36.58422 110.35404 32157 ft 409 kts 241°
2026-04-22 16:33 36.55254 110.29520 32156 ft 409 kts 240°
2026-04-22 16:33 36.52108 110.23681 32155 ft 409 kts 240°
2026-04-22 16:34 36.48949 110.17831 32151 ft 409 kts 240°
2026-04-22 16:34 36.45781 110.11974 32150 ft 409 kts 240°
2026-04-22 16:35 36.42610 110.06119 32146 ft 409 kts 240°
2026-04-22 16:35 36.39426 110.00252 32147 ft 410 kts 240°
2026-04-22 16:36 36.36243 109.94398 32148 ft 409 kts 240°
2026-04-22 16:36 36.33075 109.88580 32154 ft 409 kts 240°
2026-04-22 16:37 36.29888 109.82738 32158 ft 409 kts 240°
2026-04-22 16:37 36.26714 109.76929 32161 ft 410 kts 240°
2026-04-22 16:38 36.23518 109.71089 32162 ft 409 kts 240°
2026-04-22 16:38 36.20323 109.65261 32164 ft 409 kts 240°
2026-04-22 16:39 36.17143 109.59471 32171 ft 409 kts 240°
2026-04-22 16:39 36.13935 109.53641 32169 ft 409 kts 240°
2026-04-22 16:40 36.10755 109.47871 32172 ft 409 kts 240°
2026-04-22 16:41 36.05955 109.39177 32171 ft 409 kts 240°
2026-04-22 16:41 36.02742 109.33373 32170 ft 410 kts 240°
2026-04-22 16:42 35.99442 109.27657 32156 ft 412 kts 236°
2026-04-22 16:42 35.95463 109.22473 32159 ft 417 kts 227°
2026-04-22 16:43 35.90844 109.18116 32169 ft 423 kts 218°
2026-04-22 16:43 35.85638 109.14684 32152 ft 429 kts 209°
2026-04-22 16:44 35.79997 109.12126 32154 ft 433 kts 204°
2026-04-22 16:44 35.74271 109.09838 32158 ft 433 kts 204°
2026-04-22 16:45 35.68547 109.07550 32161 ft 432 kts 204°
2026-04-22 16:45 35.62830 109.05263 32160 ft 431 kts 204°
2026-04-22 16:46 35.57152 109.02996 32165 ft 432 kts 204°
2026-04-22 16:46 35.51440 109.00720 32159 ft 430 kts 204°
2026-04-22 16:46 35.48626 108.99600 31966 ft 428 kts 204°
2026-04-22 16:47 35.45764 108.98457 31140 ft 435 kts 204°
2026-04-22 16:47 35.42870 108.97295 30112 ft 444 kts 203°
2026-04-22 16:47 35.40946 108.96526 29431 ft 448 kts 203°
2026-04-22 16:47 35.36962 108.94944 28100 ft 453 kts 203°
2026-04-22 16:48 35.33963 108.93758 27080 ft 456 kts 203°
2026-04-22 16:48 35.30970 108.92573 26085 ft 459 kts 202°
2026-04-22 16:48 35.27936 108.91372 25047 ft 462 kts 202°
2026-04-22 16:48 35.24852 108.90153 24029 ft 464 kts 202°
2026-04-22 16:49 35.21828 108.88959 23333 ft 459 kts 202°
2026-04-22 16:49 35.18811 108.87771 22669 ft 453 kts 202°
2026-04-22 16:49 35.15816 108.86589 21952 ft 450 kts 202°
2026-04-22 16:49 35.12855 108.85421 21227 ft 447 kts 202°
2026-04-22 16:50 35.09927 108.84266 20520 ft 444 kts 202°
2026-04-22 16:50 35.07001 108.83112 19813 ft 440 kts 202°
2026-04-22 16:50 35.04100 108.81969 19101 ft 437 kts 202°
2026-04-22 16:50 35.01205 108.80830 18383 ft 435 kts 201°
2026-04-22 16:51 34.98354 108.79710 17701 ft 432 kts 201°
2026-04-22 16:51 34.95504 108.78589 17034 ft 429 kts 201°
2026-04-22 16:51 34.92690 108.77482 16346 ft 426 kts 201°
2026-04-22 16:51 34.89870 108.76374 15647 ft 424 kts 200°
2026-04-22 16:52 34.87064 108.75274 15020 ft 420 kts 200°
2026-04-22 16:52 34.84329 108.74204 14441 ft 416 kts 199°
2026-04-22 16:52 34.82474 108.73478 14059 ft 412 kts 199°
2026-04-22 16:52 34.78875 108.72073 13360 ft 405 kts 199°
2026-04-22 16:53 34.76290 108.70945 13110 ft 392 kts 204°
2026-04-22 16:53 34.73842 108.69561 12888 ft 383 kts 210°
2026-04-22 16:53 34.72277 108.68520 12738 ft 378 kts 211°
2026-04-22 16:53 34.69259 108.66436 12500 ft 372 kts 211°
2026-04-22 16:54 34.67017 108.64880 12322 ft 368 kts 211°
2026-04-22 16:54 34.64817 108.63362 12153 ft 365 kts 211°
2026-04-22 16:54 34.62601 108.61838 11999 ft 363 kts 211°
2026-04-22 16:54 34.60418 108.60369 11818 ft 359 kts 207°
2026-04-22 16:55 34.58034 108.59611 11585 ft 349 kts 181°
2026-04-22 16:55 34.56431 108.59853 11383 ft 344 kts 162°
2026-04-22 16:55 34.53890 108.61949 10902 ft 330 kts 124°
2026-04-22 16:55 34.52933 108.64381 10642 ft 318 kts 105°
2026-04-22 16:56 34.52588 108.66984 10355 ft 307 kts 85°
2026-04-22 16:56 34.53117 108.69405 10076 ft 295 kts 58°
2026-04-22 16:56 34.54414 108.71230 9805 ft 285 kts 42°
2026-04-22 16:56 34.55831 108.72916 9503 ft 280 kts 45°
2026-04-22 16:57 34.57145 108.74613 9221 ft 276 kts 46°
2026-04-22 16:57 34.58001 108.75759 9042 ft 272 kts 47°
2026-04-22 16:57 34.59652 108.78006 8727 ft 263 kts 47°
2026-04-22 16:57 34.60852 108.79654 8438 ft 258 kts 47°
2026-04-22 16:58 34.61642 108.80740 8235 ft 255 kts 47°
2026-04-22 16:58 34.63186 108.82864 7876 ft 250 kts 48°
2026-04-22 16:58 34.64322 108.84428 7619 ft 246 kts 48°
2026-04-22 16:58 34.65446 108.85979 7379 ft 242 kts 48°
2026-04-22 16:59 34.66555 108.87508 7011 ft 244 kts 48°
2026-04-22 16:59 34.67675 108.89050 6646 ft 245 kts 48°
2026-04-22 16:59 34.68805 108.90607 6329 ft 244 kts 49°
2026-04-22 16:59 34.69807 108.92231 6008 ft 243 kts 68°
2026-04-22 17:00 34.70037 108.93557 5788 ft 241 kts 94°
2026-04-22 17:00 34.68160 108.97512 5167 ft 233 kts 127°
2026-04-22 17:00 34.67163 108.99029 4933 ft 229 kts 136°
2026-04-22 17:01 34.65782 108.99861 4899 ft 227 kts 176°
2026-04-22 17:01 34.64226 108.99531 4915 ft 227 kts 203°
2026-04-22 17:01 34.63282 108.98996 4911 ft 227 kts 209°
2026-04-22 17:01 34.61572 108.97503 4900 ft 226 kts 224°
2026-04-22 17:02 34.60495 108.96117 4890 ft 225 kts 230°
2026-04-22 17:02 34.59487 108.94666 4902 ft 225 kts 230°
2026-04-22 17:02 34.58478 108.93218 4888 ft 222 kts 230°
2026-04-22 17:02 34.57474 108.91807 4771 ft 219 kts 230°
2026-04-22 17:03 34.56478 108.90432 4518 ft 216 kts 229°
2026-04-22 17:03 34.55504 108.89097 4330 ft 208 kts 229°
2026-04-22 17:03 34.54582 108.87833 4026 ft 195 kts 228°
2026-04-22 17:03 34.53720 108.86650 3773 ft 179 kts 228°
2026-04-22 17:04 34.53175 108.85901 3592 ft 170 kts 228°
2026-04-22 17:04 34.52435 108.84884 3352 ft 156 kts 228°
2026-04-22 17:04 34.51523 108.83630 3065 ft 141 kts 228°
2026-04-22 17:04 34.50882 108.82750 2907 ft 141 kts 228°
2026-04-22 17:05 34.50230 108.81852 2733 ft 140 kts 227°
2026-04-22 17:05 34.49587 108.80967 2558 ft 140 kts 228°
2026-04-22 17:05 34.48941 108.80077 2372 ft 140 kts 228°
2026-04-22 17:05 34.48297 108.79181 2172 ft 139 kts 228°
2026-04-22 17:06 34.47666 108.78303 1991 ft 139 kts 227°
2026-04-22 17:06 34.47023 108.77432 1801 ft 137 kts 227°
2026-04-22 17:06 34.46401 108.76566 1624 ft 136 kts 227°
2026-04-22 17:06 34.45811 108.75764 1576 ft 106 kts 229°
2026-04-22 17:07 34.45468 108.75292 1576 ft 39 kts 232°
2026-04-22 17:07 34.45297 108.75129 1576 ft 29 kts 201°
2026-04-22 17:07 34.45181 108.75075 1576 ft 14 kts 189°
2026-04-22 17:07 34.45143 108.75146 1576 ft 14 kts 53°
2026-04-22 17:08 34.45208 108.75243 1576 ft 15 kts 51°
2026-04-22 17:08 34.45189 108.75351 1576 ft 15 kts 136°
2026-04-22 17:08 34.45108 108.75436 1576 ft 15 kts 139°
2026-04-22 17:08 34.45025 108.75526 1576 ft 16 kts 139°
2026-04-22 17:09 34.44939 108.75616 1576 ft 16 kts 139°
2026-04-22 17:09 34.44848 108.75713 1576 ft 17 kts 138°
2026-04-22 17:09 34.44787 108.75776 1576 ft 17 kts 140°
2026-04-22 17:09 34.44736 108.75930 1576 ft 16 kts 54°
2026-04-22 17:10 34.44810 108.76039 1576 ft 16 kts 47°
2026-04-22 17:10 34.44889 108.76146 1576 ft 16 kts 50°
2026-04-22 17:10 34.44967 108.76253 1576 ft 17 kts 49°
2026-04-22 17:10 34.45045 108.76362 1576 ft 17 kts 49°
2026-04-22 17:11 34.45126 108.76469 1576 ft 16 kts 50°
2026-04-22 17:11 34.45200 108.76574 1576 ft 16 kts 48°
2026-04-22 17:11 34.45276 108.76681 1576 ft 16 kts 50°
2026-04-22 17:11 34.45355 108.76788 1576 ft 17 kts 49°
2026-04-22 17:12 34.45358 108.76851 1576 ft 8 kts 140°
2026-04-22 17:12 34.45344 108.76865 1576 ft 0 kts 139°